When you browse on this site, cookies collect data to enhance your experience and personalize the content and advertising you see.
Visit our Privacy Policy to learn more. By continuing to use the site, you agree to this use of cookies and data.
  • In Portugal
  • List of Countries
  • For 7 days
  • Water Temperature
  • Satellite Maps
  • Weather Map
  • Weather Widgets
  • user-avatar
    Login

    Hourly Weather Konstantinovka

    Today, 25 May, Saturday

    Time Temperature Precipitation Wind Pressure Humidity
    00:00 +17°C° 0.1 mm 2 mps 747 mmHg 85%
    01:00 +17°C° 0 mm 2 mps 747 mmHg 85%
    02:00 +17°C° 0 mm 2 mps 747 mmHg 86%
    03:00 +17°C° 0 mm 2 mps 747 mmHg 86%
    04:00 +17°C° 0 mm 2 mps 747 mmHg 85%
    05:00 +17°C° 0 mm 2 mps 747 mmHg 83%
    06:00 +17°C° 0 mm 2 mps 747 mmHg 81%
    07:00 +18°C° 0.2 mm 2 mps 747 mmHg 76%
    08:00 +20°C° 0.2 mm 2 mps 747 mmHg 71%
    09:00 +23°C° 0.2 mm 2 mps 747 mmHg 65%
    10:00 +23°C° 1 mm 2 mps 746 mmHg 64%
    11:00 +24°C° 1 mm 3 mps 746 mmHg 62%
    12:00 +24°C° 1 mm 3 mps 746 mmHg 61%
    13:00 +23°C° 0.4 mm 4 mps 746 mmHg 61%
    14:00 +23°C° 0.4 mm 4 mps 746 mmHg 62%
    15:00 +25°C° 0.4 mm 5 mps 745 mmHg 63%
    16:00 +23°C° 0.2 mm 4 mps 745 mmHg 68%
    17:00 +22°C° 0.2 mm 4 mps 745 mmHg 73%
    18:00 +21°C° 0.2 mm 3 mps 745 mmHg 78%
    19:00 +20°C° 0.6 mm 3 mps 745 mmHg 81%
    20:00 +19°C° 0.6 mm 3 mps 745 mmHg 85%
    21:00 +19°C° 0.6 mm 3 mps 745 mmHg 88%
    22:00 +18°C° 0.1 mm 3 mps 745 mmHg 89%
    23:00 +18°C° 0.1 mm 2 mps 745 mmHg 89%

    Tomorrow, 26 May, Sunday

    Time Temperature Precipitation Wind Pressure Humidity
    00:00 +18°C° 0.1 mm 2 mps 744 mmHg 90%
    01:00 +18°C° 0 mm 2 mps 744 mmHg 90%
    02:00 +17°C° 0 mm 3 mps 744 mmHg 90%
    03:00 +17°C° 0 mm 3 mps 744 mmHg 90%
    04:00 +17°C° 0.1 mm 3 mps 745 mmHg 91%
    05:00 +17°C° 0.1 mm 3 mps 745 mmHg 91%
    06:00 +17°C° 0.1 mm 4 mps 745 mmHg 91%
    07:00 +18°C° 0.3 mm 4 mps 745 mmHg 87%
    08:00 +19°C° 0.3 mm 5 mps 745 mmHg 82%
    09:00 +20°C° 0.3 mm 5 mps 745 mmHg 77%
    10:00 +21°C° 1 mm 5 mps 745 mmHg 75%
    11:00 +21°C° 1 mm 5 mps 745 mmHg 72%
    12:00 +22°C° 1 mm 5 mps 745 mmHg 70%
    13:00 +23°C° 1 mm 5 mps 745 mmHg 69%
    14:00 +23°C° 1 mm 5 mps 745 mmHg 68%
    15:00 +23°C° 1 mm 5 mps 745 mmHg 67%
    16:00 +23°C° 0.3 mm 4 mps 745 mmHg 68%
    17:00 +23°C° 0.3 mm 4 mps 745 mmHg 68%
    18:00 +23°C° 0.3 mm 4 mps 745 mmHg 69%
    19:00 +22°C° 0.1 mm 4 mps 746 mmHg 75%
    20:00 +20°C° 0.1 mm 4 mps 746 mmHg 80%
    21:00 +19°C° 0.1 mm 4 mps 747 mmHg 85%
    22:00 +18°C° 0 mm 4 mps 747 mmHg 87%
    23:00 +18°C° 0 mm 3 mps 748 mmHg 89%

    Day after tomorrow, 27 May, Monday

    Time Temperature Precipitation Wind Pressure Humidity
    00:00 +17°C° 0 mm 3 mps 748 mmHg 91%
    01:00 +17°C° 0 mm 3 mps 749 mmHg 92%
    02:00 +16°C° 0 mm 3 mps 749 mmHg 93%
    03:00 +16°C° 0 mm 3 mps 750 mmHg 94%
    04:00 +16°C° 0 mm 3 mps 750 mmHg 93%
    05:00 +16°C° 0 mm 3 mps 751 mmHg 92%
    06:00 +16°C° 0 mm 2 mps 751 mmHg 91%
    07:00 +18°C° 0 mm 3 mps 752 mmHg 82%
    08:00 +20°C° 0 mm 3 mps 752 mmHg 72%
    09:00 +22°C° 0 mm 3 mps 753 mmHg 63%
    10:00 +24°C° 0 mm 3 mps 753 mmHg 58%
    11:00 +24°C° 0 mm 3 mps 753 mmHg 53%
    12:00 +25°C° 0 mm 3 mps 753 mmHg 48%
    13:00 +26°C° 0 mm 3 mps 753 mmHg 49%
    14:00 +26°C° 0 mm 3 mps 753 mmHg 50%
    15:00 +26°C° 0 mm 3 mps 753 mmHg 51%
    16:00 +26°C° 0 mm 3 mps 753 mmHg 54%
    17:00 +26°C° 0 mm 3 mps 753 mmHg 56%
    18:00 +26°C° 0 mm 3 mps 753 mmHg 59%
    19:00 +24°C° 0 mm 2 mps 754 mmHg 64%
    20:00 +23°C° 0 mm 2 mps 754 mmHg 69%
    21:00 +21°C° 0 mm 1 mps 754 mmHg 73%
    22:00 +21°C° 0 mm 1 mps 754 mmHg 75%
    23:00 +20°C° 0 mm 1 mps 754 mmHg 76%

    28 May, Tuesday

    Time Temperature Precipitation Wind Pressure Humidity
    00:00 +20°C° 0 mm 1 mps 754 mmHg 77%
    01:00 +19°C° 0 mm 1 mps 755 mmHg 78%
    02:00 +19°C° 0 mm 1 mps 755 mmHg 78%
    03:00 +18°C° 0 mm 2 mps 755 mmHg 78%
    04:00 +18°C° 0 mm 2 mps 755 mmHg 79%
    05:00 +19°C° 0 mm 1 mps 755 mmHg 79%
    06:00 +20°C° 0 mm 1 mps 755 mmHg 80%
    07:00 +22°C° 0 mm 1 mps 755 mmHg 73%
    08:00 +23°C° 0 mm 2 mps 755 mmHg 67%
    09:00 +25°C° 0 mm 2 mps 756 mmHg 61%
    10:00 +26°C° 0 mm 2 mps 756 mmHg 57%
    11:00 +27°C° 0 mm 2 mps 756 mmHg 53%
    12:00 +29°C° 0 mm 2 mps 756 mmHg 49%
    13:00 +29°C° 0 mm 2 mps 756 mmHg 47%
    14:00 +29°C° 0 mm 2 mps 755 mmHg 46%
    15:00 +30°C° 0 mm 2 mps 755 mmHg 45%
    16:00 +29°C° 0 mm 2 mps 755 mmHg 49%
    17:00 +29°C° 0 mm 2 mps 755 mmHg 53%
    18:00 +28°C° 0 mm 2 mps 755 mmHg 57%
    19:00 +26°C° 0 mm 2 mps 755 mmHg 62%
    20:00 +25°C° 0 mm 2 mps 755 mmHg 66%
    21:00 +23°C° 0 mm 2 mps 755 mmHg 71%
    22:00 +21°C° 0 mm 2 mps 755 mmHg 73%
    23:00 +21°C° 0 mm 2 mps 755 mmHg 75%

    29 May, Wednesday

    Time Temperature Precipitation Wind Pressure Humidity
    00:00 +21°C° 0 mm 1 mps 755 mmHg 77%
    01:00 +21°C° 0 mm 1 mps 755 mmHg 77%
    02:00 +20°C° 0 mm 1 mps 755 mmHg 77%
    03:00 +20°C° 0 mm 1 mps 755 mmHg 78%
    04:00 +20°C° 0 mm 1 mps 755 mmHg 78%
    05:00 +20°C° 0 mm 2 mps 755 mmHg 79%
    06:00 +20°C° 0 mm 2 mps 755 mmHg 79%
    07:00 +23°C° 0 mm 2 mps 755 mmHg 73%
    08:00 +25°C° 0 mm 3 mps 755 mmHg 67%
    09:00 +27°C° 0 mm 4 mps 755 mmHg 61%
    10:00 +28°C° 0 mm 4 mps 755 mmHg 58%
    11:00 +28°C° 0 mm 4 mps 755 mmHg 55%
    12:00 +29°C° 0 mm 5 mps 754 mmHg 53%
    13:00 +30°C° 0 mm 5 mps 754 mmHg 52%
    14:00 +30°C° 0 mm 5 mps 754 mmHg 52%
    15:00 +30°C° 0 mm 5 mps 754 mmHg 51%
    16:00 +30°C° 0 mm 4 mps 754 mmHg 54%
    17:00 +29°C° 0 mm 4 mps 754 mmHg 56%
    18:00 +29°C° 0 mm 3 mps 754 mmHg 59%
    19:00 +27°C° 0 mm 3 mps 754 mmHg 62%
    20:00 +25°C° 0 mm 3 mps 754 mmHg 65%
    21:00 +24°C° 0 mm 3 mps 754 mmHg 69%
    22:00 +22°C° 0 mm 3 mps 754 mmHg 71%
    23:00 +21°C° 0 mm 2 mps 754 mmHg 73%

    30 May, Thursday

    Time Temperature Precipitation Wind Pressure Humidity
    00:00 +21°C° 0 mm 2 mps 753 mmHg 75%
    01:00 +20°C° 0 mm 2 mps 753 mmHg 76%
    02:00 +20°C° 0 mm 2 mps 753 mmHg 77%
    03:00 +19°C° 0 mm 2 mps 753 mmHg 78%
    04:00 +20°C° 0 mm 2 mps 753 mmHg 78%
    05:00 +20°C° 0 mm 2 mps 753 mmHg 78%
    06:00 +20°C° 0 mm 2 mps 753 mmHg 78%
    07:00 +22°C° 0 mm 3 mps 753 mmHg 70%
    08:00 +25°C° 0 mm 3 mps 753 mmHg 63%
    09:00 +27°C° 0 mm 4 mps 753 mmHg 56%
    10:00 +28°C° 0 mm 4 mps 753 mmHg 51%
    11:00 +29°C° 0 mm 3 mps 753 mmHg 47%
    12:00 +30°C° 0 mm 3 mps 753 mmHg 42%
    13:00 +31°C° 0 mm 3 mps 753 mmHg 40%
    14:00 +31°C° 0 mm 3 mps 753 mmHg 39%
    15:00 +31°C° 0 mm 2 mps 752 mmHg 38%
    16:00 +31°C° 0 mm 2 mps 752 mmHg 41%
    17:00 +31°C° 0 mm 2 mps 752 mmHg 44%
    18:00 +31°C° 0 mm 2 mps 752 mmHg 47%
    19:00 +29°C° 0 mm 2 mps 752 mmHg 50%
    20:00 +27°C° 0 mm 2 mps 752 mmHg 53%
    21:00 +25°C° 0 mm 2 mps 752 mmHg 55%
    22:00 +24°C° 0 mm 1 mps 752 mmHg 57%
    23:00 +23°C° 0 mm 1 mps 752 mmHg 59%
    Show more